Location: *
(44.1392°N, 4.8079°E)
Time: 06:16:31
(UTC+00:00)

NOSS 2-2 (C) - Pass Details

Date: 21 June 2021
Orbit: 454 x 1753 km, 63.3° (Epoch: 30 July)

Event Time Altitude Azimuth Distance (km) Brightness Sun altitude
Exits shadow 01:37:32 42° 243° (WSW) 659 3.3 -17.5°
Maximum altitude 01:38:30 66° 309° (NW) 506 3.1 -17.4°
Drops below altitude 10° 01:42:08 10° 33° (NNE) 1,709 7.2 -17.1°
Sets 01:44:28 0° 36° (NE) 2,705 8.6 -16.9°
